Time,TemperatureF,DewpointF,PressureIn,WindDirection,WindDirectionDegrees,WindSpeedMPH,WindSpeedGustMPH,Humidity,HourlyPrecipIn,Conditions,Clouds,dailyrainin,SoftwareType,DateUTC
2013-07-28 00:02:00,61.0,52.0,30.10,South,188,1.0,-999.0,72,-99.99,,,-99.99,,2013-07-28 05:02:00,
2013-07-28 00:12:00,59.0,50.0,30.10,South,183,1.0,-999.0,72,-99.99,,,-99.99,,2013-07-28 05:12:00,
2013-07-28 00:22:00,61.0,52.0,30.10,SW,236,3.0,-999.0,72,-99.99,,,-99.99,,2013-07-28 05:22:00,
2013-07-28 00:32:00,61.0,52.0,30.09,SSW,212,2.0,-999.0,72,-99.99,,,-99.99,,2013-07-28 05:32:00,
2013-07-28 00:43:00,61.0,52.0,30.10,SSW,213,2.0,-999.0,72,-99.99,,,-99.99,,2013-07-28 05:43:00,
2013-07-28 00:52:00,61.0,52.0,30.09,SW,220,3.0,-999.0,72,-99.99,,,-99.99,,2013-07-28 05:52:00,
2013-07-28 01:02:00,61.0,52.0,30.09,SW,221,3.0,-999.0,72,-99.99,,,-99.99,,2013-07-28 06:02:00,
2013-07-28 01:22:00,59.0,50.0,30.09,SW,232,3.0,-999.0,72,-99.99,,,-99.99,,2013-07-28 06:22:00,
2013-07-28 02:02:00,59.0,48.0,30.09,WSW,249,3.0,-999.0,67,-99.99,,,-99.99,,2013-07-28 07:02:00,
2013-07-28 02:12:00,59.0,48.0,30.09,West,262,3.0,-999.0,67,-99.99,,,-99.99,,2013-07-28 07:12:00,
2013-07-28 02:22:00,59.0,48.0,30.09,West,263,3.0,-999.0,67,-99.99,,,-99.99,,2013-07-28 07:22:00,
2013-07-28 02:32:00,57.0,48.0,30.09,West,264,3.0,-999.0,71,-99.99,,,-99.99,,2013-07-28 07:32:00,
2013-07-28 02:43:00,57.0,48.0,30.09,West,261,3.0,-999.0,71,-99.99,,,-99.99,,2013-07-28 07:43:00,
2013-07-28 02:53:00,57.0,48.0,30.09,West,261,2.0,-999.0,71,-99.99,,,-99.99,,2013-07-28 07:53:00,
2013-07-28 03:02:00,57.0,48.0,30.09,WSW,253,5.0,-999.0,71,-99.99,,,-99.99,,2013-07-28 08:02:00,
2013-07-28 03:12:00,57.0,48.0,30.10,WSW,254,3.0,-999.0,71,-99.99,,,-99.99,,2013-07-28 08:12:00,
2013-07-28 03:22:00,57.0,48.0,30.10,WSW,256,5.0,-999.0,71,-99.99,,,-99.99,,2013-07-28 08:22:00,
2013-07-28 03:33:00,57.0,48.0,30.10,West,262,3.0,-999.0,71,-99.99,,,-99.99,,2013-07-28 08:33:00,
2013-07-28 03:42:00,57.0,48.0,30.10,WSW,237,5.0,-999.0,71,-99.99,,,-99.99,,2013-07-28 08:42:00,
2013-07-28 03:53:00,57.0,48.0,30.10,West,264,3.0,-999.0,71,-99.99,,,-99.99,,2013-07-28 08:53:00,
2013-07-28 04:02:00,57.0,48.0,30.10,WSW,252,6.0,-999.0,71,-99.99,,,-99.99,,2013-07-28 09:02:00,
2013-07-28 04:12:00,57.0,48.0,30.09,WSW,250,3.0,-999.0,71,-99.99,,,-99.99,,2013-07-28 09:12:00,
2013-07-28 04:22:00,57.0,48.0,30.09,West,260,5.0,-999.0,71,-99.99,,,-99.99,,2013-07-28 09:22:00,
2013-07-28 04:32:00,57.0,48.0,30.09,WNW,283,5.0,-999.0,71,-99.99,,,-99.99,,2013-07-28 09:32:00,
2013-07-28 04:43:00,55.0,48.0,30.09,WSW,245,5.0,-999.0,76,-99.99,,,-99.99,,2013-07-28 09:43:00,
2013-07-28 04:53:00,55.0,48.0,30.09,West,270,5.0,-999.0,76,-99.99,,,-99.99,,2013-07-28 09:53:00,
2013-07-28 05:02:00,55.0,48.0,30.08,West,267,3.0,-999.0,76,-99.99,,,-99.99,,2013-07-28 10:02:00,
2013-07-28 05:12:00,55.0,48.0,30.08,WSW,251,2.0,-999.0,76,-99.99,,,-99.99,,2013-07-28 10:12:00,
2013-07-28 05:22:00,55.0,48.0,30.08,West,262,3.0,-999.0,76,-99.99,,,-99.99,,2013-07-28 10:22:00,
2013-07-28 05:33:00,55.0,48.0,30.08,West,264,5.0,-999.0,76,-99.99,,,-99.99,,2013-07-28 10:33:00,
2013-07-28 05:42:00,55.0,48.0,30.08,WSW,240,3.0,-999.0,76,-99.99,,,-99.99,,2013-07-28 10:42:00,
2013-07-28 05:52:00,55.0,48.0,30.09,West,259,3.0,-999.0,76,-99.99,,,-99.99,,2013-07-28 10:52:00,
2013-07-28 06:12:00,55.0,48.0,30.09,WSW,256,3.0,-999.0,76,-99.99,,,-99.99,,2013-07-28 11:12:00,
2013-07-28 06:22:00,55.0,48.0,30.10,WSW,257,3.0,-999.0,76,-99.99,,,-99.99,,2013-07-28 11:22:00,
2013-07-28 06:33:00,55.0,48.0,30.10,West,266,3.0,-999.0,76,-99.99,,,-99.99,,2013-07-28 11:33:00,
2013-07-28 06:43:00,55.0,48.0,30.10,West,262,5.0,-999.0,76,-99.99,,,-99.99,,2013-07-28 11:43:00,
2013-07-28 06:53:00,55.0,48.0,30.11,West,269,3.0,-999.0,76,-99.99,,,-99.99,,2013-07-28 11:53:00,
2013-07-28 07:02:00,55.0,48.0,30.11,West,270,5.0,-999.0,76,-99.99,,,-99.99,,2013-07-28 12:02:00,
2013-07-28 07:12:00,57.0,50.0,30.11,WSW,255,3.0,-999.0,76,-99.99,,,-99.99,,2013-07-28 12:12:00,
2013-07-28 07:22:00,57.0,50.0,30.11,West,270,5.0,-999.0,76,-99.99,,,-99.99,,2013-07-28 12:22:00,
2013-07-28 07:33:00,57.0,52.0,30.12,West,273,3.0,-999.0,82,-99.99,,,-99.99,,2013-07-28 12:33:00,
2013-07-28 09:02:00,63.0,52.0,30.13,WNW,288,3.0,-999.0,67,-99.99,,,-99.99,,2013-07-28 14:02:00,
2013-07-28 09:33:00,66.0,54.0,30.13,West,267,5.0,-999.0,63,-99.99,,,-99.99,,2013-07-28 14:33:00,
2013-07-28 09:43:00,66.0,54.0,30.13,NW,306,2.0,-999.0,63,-99.99,,,-99.99,,2013-07-28 14:43:00,
2013-07-28 09:53:00,66.0,52.0,30.13,West,277,6.0,-999.0,59,-99.99,,,-99.99,,2013-07-28 14:53:00,
2013-07-28 10:03:00,68.0,54.0,30.12,NNE,16,5.0,-999.0,59,-99.99,,,-99.99,,2013-07-28 15:03:00,
2013-07-28 10:13:00,68.0,52.0,30.12,WNW,286,5.0,-999.0,56,-99.99,,,-99.99,,2013-07-28 15:13:00,
2013-07-28 10:32:00,70.0,54.0,30.12,NNE,20,2.0,-999.0,56,-99.99,,,-99.99,,2013-07-28 15:32:00,
2013-07-28 10:43:00,70.0,52.0,30.12,NNW,343,3.0,-999.0,52,-99.99,,,-99.99,,2013-07-28 15:43:00,
2013-07-28 10:53:00,70.0,52.0,30.12,NNE,13,3.0,-999.0,52,-99.99,,,-99.99,,2013-07-28 15:53:00,
2013-07-28 11:02:00,70.0,52.0,30.12,North,6,7.0,-999.0,52,-99.99,,,-99.99,,2013-07-28 16:02:00,
2013-07-28 11:12:00,72.0,52.0,30.12,NNW,329,2.0,-999.0,49,-99.99,,,-99.99,,2013-07-28 16:12:00,
2013-07-28 11:22:00,72.0,52.0,30.12,NW,320,3.0,-999.0,49,-99.99,,,-99.99,,2013-07-28 16:22:00,
2013-07-28 11:33:00,72.0,52.0,30.12,NNW,347,5.0,-999.0,49,-99.99,,,-99.99,,2013-07-28 16:33:00,
2013-07-28 11:43:00,72.0,50.0,30.12,WNW,293,5.0,-999.0,46,-99.99,,,-99.99,,2013-07-28 16:43:00,
2013-07-28 11:52:00,72.0,50.0,30.12,NNW,331,5.0,-999.0,46,-99.99,,,-99.99,,2013-07-28 16:52:00,
2013-07-28 12:02:00,73.0,52.0,30.12,NNE,16,3.0,-999.0,46,-99.99,,,-99.99,,2013-07-28 17:02:00,
2013-07-28 12:12:00,73.0,52.0,30.12,NW,319,2.0,-999.0,46,-99.99,,,-99.99,,2013-07-28 17:12:00,
2013-07-28 12:23:00,73.0,52.0,30.12,WNW,282,3.0,-999.0,46,-99.99,,,-99.99,,2013-07-28 17:23:00,
2013-07-28 12:32:00,73.0,50.0,30.12,North,7,5.0,-999.0,43,-99.99,,,-99.99,,2013-07-28 17:32:00,
2013-07-28 12:43:00,73.0,50.0,30.12,WNW,299,6.0,-999.0,43,-99.99,,,-99.99,,2013-07-28 17:43:00,
2013-07-28 12:53:00,73.0,48.0,30.12,WNW,286,3.0,-999.0,40,-99.99,,,-99.99,,2013-07-28 17:53:00,
2013-07-28 13:03:00,73.0,50.0,30.12,NNW,341,6.0,-999.0,43,-99.99,,,-99.99,,2013-07-28 18:03:00,
2013-07-28 13:12:00,73.0,50.0,30.12,NNE,31,5.0,-999.0,43,-99.99,,,-99.99,,2013-07-28 18:12:00,
2013-07-28 13:22:00,73.0,52.0,30.12,NW,305,3.0,-999.0,46,-99.99,,,-99.99,,2013-07-28 18:22:00,
2013-07-28 13:33:00,73.0,50.0,30.12,West,273,8.0,-999.0,43,-99.99,,,-99.99,,2013-07-28 18:33:00,
2013-07-28 13:43:00,73.0,52.0,30.12,NNW,336,3.0,-999.0,46,-99.99,,,-99.99,,2013-07-28 18:43:00,
2013-07-28 13:52:00,73.0,50.0,30.12,NW,315,7.0,-999.0,43,-99.99,,,-99.99,,2013-07-28 18:52:00,
2013-07-28 14:02:00,75.0,52.0,30.11,NNW,336,6.0,-999.0,43,-99.99,,,-99.99,,2013-07-28 19:02:00,
2013-07-28 14:12:00,75.0,50.0,30.11,NNW,332,5.0,-999.0,41,-99.99,,,-99.99,,2013-07-28 19:12:00,
2013-07-28 14:22:00,75.0,50.0,30.11,North,1,5.0,-999.0,41,-99.99,,,-99.99,,2013-07-28 19:22:00,
2013-07-28 14:33:00,75.0,52.0,30.11,NNW,343,3.0,-999.0,43,-99.99,,,-99.99,,2013-07-28 19:33:00,
2013-07-28 14:43:00,75.0,50.0,30.11,West,277,2.0,-999.0,41,-99.99,,,-99.99,,2013-07-28 19:43:00,
2013-07-28 14:52:00,75.0,52.0,30.11,North,358,6.0,-999.0,43,-99.99,,,-99.99,,2013-07-28 19:52:00,
2013-07-28 15:02:00,75.0,50.0,30.11,NNW,339,5.0,-999.0,41,-99.99,,,-99.99,,2013-07-28 20:02:00,
2013-07-28 15:12:00,75.0,50.0,30.11,NNE,30,5.0,-999.0,41,-99.99,,,-99.99,,2013-07-28 20:12:00,
2013-07-28 15:23:00,75.0,48.0,30.11,North,354,6.0,-999.0,38,-99.99,,,-99.99,,2013-07-28 20:23:00,
2013-07-28 15:33:00,75.0,50.0,30.11,WNW,288,6.0,-999.0,41,-99.99,,,-99.99,,2013-07-28 20:33:00,
2013-07-28 15:43:00,77.0,52.0,30.11,NW,312,5.0,-999.0,41,-99.99,,,-99.99,,2013-07-28 20:43:00,
2013-07-28 15:52:00,77.0,52.0,30.11,West,273,2.0,-999.0,41,-99.99,,,-99.99,,2013-07-28 20:52:00,
2013-07-28 16:03:00,77.0,50.0,30.11,West,273,7.0,-999.0,38,-99.99,,,-99.99,,2013-07-28 21:03:00,
2013-07-28 16:12:00,77.0,52.0,30.11,West,276,7.0,-999.0,41,-99.99,,,-99.99,,2013-07-28 21:12:00,
2013-07-28 16:22:00,77.0,52.0,30.11,NNW,338,5.0,-999.0,41,-99.99,,,-99.99,,2013-07-28 21:22:00,
2013-07-28 16:33:00,77.0,50.0,30.11,West,272,7.0,-999.0,38,-99.99,,,-99.99,,2013-07-28 21:33:00,
2013-07-28 16:44:00,77.0,52.0,30.11,NW,317,3.0,-999.0,41,-99.99,,,-99.99,,2013-07-28 21:44:00,
2013-07-28 16:52:00,77.0,50.0,30.11,WNW,291,8.0,-999.0,38,-99.99,,,-99.99,,2013-07-28 21:52:00,
2013-07-28 17:02:00,79.0,52.0,30.11,North,351,2.0,-999.0,39,-99.99,,,-99.99,,2013-07-28 22:02:00,
2013-07-28 17:12:00,79.0,52.0,30.11,NW,308,3.0,-999.0,39,-99.99,,,-99.99,,2013-07-28 22:12:00,
2013-07-28 17:22:00,79.0,52.0,30.11,WNW,284,6.0,-999.0,39,-99.99,,,-99.99,,2013-07-28 22:22:00,
2013-07-28 17:32:00,77.0,52.0,30.11,WNW,288,6.0,-999.0,41,-99.99,,,-99.99,,2013-07-28 22:32:00,
2013-07-28 17:43:00,75.0,52.0,30.11,NW,309,3.0,-999.0,43,-99.99,,,-99.99,,2013-07-28 22:43:00,
2013-07-28 17:52:00,77.0,52.0,30.12,NW,307,3.0,-999.0,41,-99.99,,,-99.99,,2013-07-28 22:52:00,
2013-07-28 18:03:00,79.0,52.0,30.11,East,88,2.0,-999.0,39,-99.99,,,-99.99,,2013-07-28 23:03:00,
2013-07-28 18:12:00,79.0,52.0,30.11,NNW,347,2.0,-999.0,39,-99.99,,,-99.99,,2013-07-28 23:12:00,
2013-07-28 18:22:00,77.0,52.0,30.11,North,0,3.0,-999.0,41,-99.99,,,-99.99,,2013-07-28 23:22:00,
2013-07-28 18:32:00,77.0,52.0,30.11,NNE,20,2.0,-999.0,41,-99.99,,,-99.99,,2013-07-28 23:32:00,
2013-07-28 18:43:00,77.0,52.0,30.11,WNW,284,3.0,-999.0,41,-99.99,,,-99.99,,2013-07-28 23:43:00,
2013-07-28 18:53:00,77.0,52.0,30.11,North,1,2.0,-999.0,41,-99.99,,,-99.99,,2013-07-28 23:53:00,
2013-07-28 19:03:00,77.0,52.0,30.11,WNW,298,2.0,-999.0,41,-99.99,,,-99.99,,2013-07-29 00:03:00,
2013-07-28 19:12:00,77.0,52.0,30.12,West,276,5.0,-999.0,41,-99.99,,,-99.99,,2013-07-29 00:12:00,
2013-07-28 19:22:00,77.0,52.0,30.12,North,355,1.0,-999.0,41,-99.99,,,-99.99,,2013-07-29 00:22:00,
2013-07-28 19:32:00,77.0,52.0,30.12,NE,43,1.0,-999.0,41,-99.99,,,-99.99,,2013-07-29 00:32:00,
2013-07-28 19:43:00,77.0,52.0,30.12,North,1,0.0,-999.0,41,-99.99,,,-99.99,,2013-07-29 00:43:00,
2013-07-28 19:52:00,77.0,52.0,30.12,West,266,2.0,-999.0,41,-99.99,,,-99.99,,2013-07-29 00:52:00,
2013-07-28 20:02:00,75.0,52.0,30.13,NE,44,1.0,-999.0,43,-99.99,,,-99.99,,2013-07-29 01:02:00,
2013-07-28 20:13:00,75.0,52.0,30.13,ENE,61,0.0,-999.0,43,-99.99,,,-99.99,,2013-07-29 01:13:00,
2013-07-28 20:27:00,73.0,52.0,30.13,North,0,0.0,-999.0,46,-99.99,,,-99.99,,2013-07-29 01:27:00,
2013-07-28 20:44:00,73.0,52.0,30.13,North,0,0.0,-999.0,46,-99.99,,,-99.99,,2013-07-29 01:44:00,
2013-07-28 20:57:00,72.0,52.0,30.13,North,0,0.0,-999.0,49,-99.99,,,-99.99,,2013-07-29 01:57:00,
2013-07-28 21:14:00,70.0,52.0,30.14,North,0,0.0,-999.0,52,-99.99,,,-99.99,,2013-07-29 02:14:00,
2013-07-28 21:36:00,68.0,52.0,30.14,North,0,0.0,-999.0,56,-99.99,,,-99.99,,2013-07-29 02:36:00,
2013-07-28 21:46:00,68.0,52.0,30.15,North,0,0.0,-999.0,56,-99.99,,,-99.99,,2013-07-29 02:46:00,
2013-07-28 21:56:00,66.0,52.0,30.15,North,0,0.0,-999.0,59,-99.99,,,-99.99,,2013-07-29 02:56:00,
2013-07-28 22:03:00,66.0,52.0,30.15,North,0,0.0,-999.0,59,-99.99,,,-99.99,,2013-07-29 03:03:00,
2013-07-28 22:24:00,66.0,52.0,30.16,North,0,0.0,-999.0,59,-99.99,,,-99.99,,2013-07-29 03:24:00,
2013-07-28 22:36:00,64.0,52.0,30.16,North,0,0.0,-999.0,63,-99.99,,,-99.99,,2013-07-29 03:36:00,
2013-07-28 22:47:00,64.0,54.0,30.16,ENE,61,1.0,-999.0,67,-99.99,,,-99.99,,2013-07-29 03:47:00,
2013-07-28 22:55:00,64.0,54.0,30.16,North,0,0.0,-999.0,67,-99.99,,,-99.99,,2013-07-29 03:55:00,
2013-07-28 23:02:00,64.0,54.0,30.16,North,0,0.0,-999.0,67,-99.99,,,-99.99,,2013-07-29 04:02:00,
2013-07-28 23:12:00,64.0,55.0,30.17,ENE,63,1.0,-999.0,72,-99.99,,,-99.99,,2013-07-29 04:12:00,
2013-07-28 23:22:00,64.0,55.0,30.17,North,0,0.0,-999.0,72,-99.99,,,-99.99,,2013-07-29 04:22:00,
2013-07-28 23:32:00,64.0,54.0,30.17,North,0,0.0,-999.0,67,-99.99,,,-99.99,,2013-07-29 04:32:00,
2013-07-28 23:43:00,63.0,54.0,30.17,North,0,0.0,-999.0,72,-99.99,,,-99.99,,2013-07-29 04:43:00,
2013-07-28 23:53:00,63.0,54.0,30.17,North,0,0.0,-999.0,72,-99.99,,,-99.99,,2013-07-29 04:53:00,